Regional Weather Roundup
Issued by NWS Green Bay, WI

Home | Current Version | Previous Version | Text Only | Print | Product List | Glossary On
Versions: 1 2 3 4 5 6 7 8 9 10 11 12 13 14 15 16 17 18 19 20 21 22 23 24 25 26 27 28 29 30 31 32 33 34 35 36 37 38 39 40 41 42 43 44 45 46 47 48 49 50
036
ASUS43 KGRB 292311
RWRGRB

NORTH-CENTRAL AND NORTHEAST WISCONSIN REGIONAL WEATHER ROUNDUP
NATIONAL WEATHER SERVICE GREEN BAY WI
600 PM CDT WED MAR 29 2017

WIZ005-009-010>012-018-019-300000-
NORTH CENTRAL WISCONSIN

CITY           SKY/WX    TMP DP  RH WIND       PRES   REMARKS
IRONWOOD       CLOUDY    49  30  48 E7        30.21S
MANITOWISH WTR CLOUDY    46  29  53 SE3       30.20F
ARBOR VITAE    CLOUDY    46  29  52 SE5       30.20F
EAGLE RIVER    CLOUDY    44  26  48 E5        30.21F
LAND O LAKES   CLOUDY    45  28  51 E5        30.23F
RHINELANDER    CLOUDY    46  29  51 E8        30.21F
PHILLIPS       CLOUDY    46  31  54 SE5       30.19F
ANTIGO         CLOUDY    41  31  67 E7        30.21F
TOMAHAWK       CLOUDY    44  29  55 CALM      30.21S
MERRILL        CLOUDY    44  31  59 E7        30.21F
$$

WIZ013-073-300000-
NORTHEAST WISCONSIN

CITY           SKY/WX    TMP DP  RH WIND       PRES   REMARKS
IRON MOUNTAIN  CLOUDY    44  24  45 NE6       30.23F
MARINETTE      PTSUNNY   37  27  67 E13       30.28F
OCONTO         CLOUDY    38  26  62 NE5       30.26F
$$

WIZ017-030-035>037-045-300000-
CENTRAL WISCONSIN

CITY           SKY/WX    TMP DP  RH WIND       PRES   REMARKS
MEDFORD        CLOUDY    43  30  59 E8        30.19S
WAUSAU         CLOUDY    43  29  57 E9        30.19F
MOSINEE        PTSUNNY   43  30  61 E9        30.20F
MARSHFIELD     CLOUDY    43  31  62 SE8       30.19F
WISC RAPIDS    LGT RAIN  43  34  70 E7        30.23R
STEVENS POINT  CLOUDY    41  28  60 E12       30.22R
WAUPACA        CLOUDY    44  32  62 NE10G17   30.20F
SHAWANO        CLOUDY    43  31  64 E6        30.25S
CLINTONVILLE   CLOUDY    41  30  65 E10       30.23F
WAUTOMA        CLOUDY    43  31  62 E9        30.23R
$$

WIZ038-039-048-051-300000-
FOX VALLEY

CITY           SKY/WX    TMP DP  RH WIND       PRES   REMARKS
NWS GREEN BAY  CLOUDY    40  31  70 NE13      30.23F
APPLETON       CLOUDY    41  28  60 NE12      30.20F
OSHKOSH        CLOUDY    41  30  65 NE10      30.20S
FOND DU LAC    CLOUDY    43  29  57 NE14      30.19F
$$

WIZ022-050-052-300000-
EAST CENTRAL WISCONSIN

CITY           SKY/WX    TMP DP  RH WIND       PRES   REMARKS
EPHRAIM        MOCLDY    37  26  64 E9        30.25F
WASHINGTON ISL NOT AVBL
STURGEON BAY   PTSUNNY   38  27  64 NE8       30.25S
MANITOWOC      CLOUDY    37  32  82 NE12      30.23F
SHEBOYGAN      CLOUDY    37  33  85 NE14      30.20F
$$

LMZ563-521-522-541>543-300000-
LAKESHORE

STATION/POSITION TIME  TEMP    WIND        PRES    VSBY  WAVE
                       AIR SEA DIR/SP/G                  HT/PER
                 (UTC) (F)     (DEG/KT/KT) (MB)    (MI)  (FT/S)
SHEBOYGAN LKSHOR 2300   36      10/ 19/ 21 1023.0F
KEWAUNEE LKSHORE 2236   36      30/ 12/ 15 1023.9F
NORTHPORT PIER   2240   36      60/  9/ 11 1025.1F
CHAMBERS ISLAND  2240   36      40/ 10/ 12 1024.7F
MENOMINEE LKSHOR 2236   34      10/ 10/ 10 1024.1F
$$




USA.gov is the U.S. government's official web portal to all federal, state and local government web resources and services.